Location: Spring Creek
(38.2870°N, 100.2160°W)
Time: 08:38:40
(UTC+00:00)

BREEZE-M DEB (TANK) - Pass Details

Date: 08 May 2021
Orbit: 317 x 14223 km, 49.6° (Epoch: 21 June)

Event Time Altitude Azimuth Distance (km) Brightness Sun altitude
Rises 03:00:06 0° 304° (WNW) 2,071 7.5 -14.8°
Reaches altitude 10° 03:01:43 10° 302° (WNW) 1,233 5.8 -15.0°
Maximum altitude 03:03:57 73° 216° (SW) 409 1.9 -15.4°
Enters shadow 03:05:06 34° 138° (SE) 768 2.8 -15.6°
